Regional Weather Roundup
Issued by NWS

Home | Current Version | Previous Version | Graphics & Text | Print | Product List | Glossary On
Versions: 1 2 3 4 5 6 7 8 9 10 11 12 13 14 15 16 17 18 19 20 21 22 23 24 25 26 27 28
000
ASUS45 KSLC 220610
RWRUT

UTAH REGIONAL WEATHER ROUNDUP
NATIONAL WEATHER SERVICE SALT LAKE CITY UT
1100 PM MST TUE NOV 21 2017

UTZ001>011-023>025-220700-

NORTHERN UTAH

CITY           SKY/WX    TMP DP  RH WIND       PRES   REMARKS
BRIGHAM CITY   CLOUDY    48  40  72 CALM      30.38S
HILL AFB       CLOUDY    50  39  64 E7        30.38S
LOGAN          CLOUDY    49  42  77 NE3       30.37S
OGDEN          CLOUDY    50  40  68 S6        30.37S
SALT LAKE CITY MOCLDY    50  40  68 SE7       30.37S
TOOELE VALLEY  PTCLDY    45  39  81 S6        30.38R
WENDOVER       MOCLDY    43  36  76 NE3       30.38R
HEBER CITY       N/A     37  34  87 E3        30.42S
WEST JORDAN    PTCLDY    45  40  85 SE3       30.39S

$$

UTZ011>015-024>027-220700-

CENTRAL/NORTHEAST UTAH

CITY           SKY/WX    TMP DP  RH WIND       PRES   REMARKS
PROVO AIRPORT  PTCLDY    41  37  86 S3        30.41R
MOAB/CANYONLAN MOCLDY    36  10  34 W6        30.38R WCI  31
DELTA          CLOUDY    41  28  60 CALM      30.40S
PRICE          MOCLDY    41  17  38 E6        30.41R
RICHFIELD      CLEAR     36  34  93 CALM      30.46R
ROOSEVELT      CLOUDY    41  30  65 W3        30.41R
VERNAL         CLOUDY    45  32  60 W3        30.38R

$$

UTZ013>016-019>022-027-220700-

SOUTHERN UTAH

CITY           SKY/WX    TMP DP  RH WIND       PRES   REMARKS
BRYCE CANYON   CLEAR     35  30  82 W8        30.51R WCI  29
CEDAR CITY     PTCLDY    42  33  70 E6        30.42R
MILFORD        MOCLDY    42  32  67 W8        30.40S
ST GEORGE      PTCLDY    52  14  22 NW3       30.32R
HANKSVILLE     MOCLDY    39  12  33 CALM      30.41S
KANAB          CLEAR     50  30  46 N12       30.42R
BLANDING         N/A     41  28  61 NE6       30.45F

$$

REGIONAL REPORTS     COLORADO/ARIZONA

CITY           SKY/WX    TMP DP  RH WIND       PRES   REMARKS
CRAIG, CO      CLOUDY    35  31  85 CALM      30.43F
GRAND JUNCTION CLOUDY    42  29  59 SE5       30.41S
RIFLE, CO      CLOUDY    34  31  88 CALM      30.45S
MONTROSE, CO   CLOUDY    34  29  82 S7        30.45S WCI  28
CORTEZ, CO     CLOUDY    31  24  75 E7        30.39F WCI  24
COLORADO CITY    N/A     37  27  65 CALM      30.40S
PAGE, AZ       CLEAR     48  19  31 CALM      30.37R
GRAND CANYON   PTCLDY    34  22  61 NE3       30.44R
KINGMAN, AZ    PTCLDY    52  21  29 E9        30.27S
FLAGSTAFF, AZ  CLEAR     45  26  47 E8        30.43S

$$

REGIONAL REPORTS    NEVADA/IDAHO/WYOMING

CITY           SKY/WX    TMP DP  RH WIND       PRES   REMARKS
LAS VEGAS, NV  MOCLDY    60  27  28 CALM      30.24R
ELY, NY        PTCLDY    38  31  76 S13       30.46R WCI  30
ELKO, NV       CLOUDY    42  39  89 E5        30.38S
POCATELLO, ID  LGT RAIN  42  42 100 N8        30.37R
BURLEY, ID     MOCLDY    46  43  89 CALM      30.34R
FORT BRIDGER,  MOCLDY    43  36  77 SW16G22   30.45S
EVANSTON, WY   CLOUDY    41  37  86 SW9       30.44R
ROCK SPRINGS,  CLOUDY    42  34  73 SW20      30.39F
KEMMERER, WY   CLOUDY    37  34  87 W3        30.43S

$$




USA.gov is the U.S. government's official web portal to all federal, state and local government web resources and services.